FW5858 Weather Reports


time (UTC)temp
C
wind
direction
speed
KPH
gust
KPH
rain 1hr
cm
rain 24hr
cm
rain mn
cm
humidity
%
barometer
mb
20260508154508 13 263 1.6 3.2 0.00 0.00 0.00 62 1013.6
20260508153014 12 242 1.6 3.2 0.00 0.00 0.00 61 1013.7
20260508151518 12 250 1.6 3.2 0.00 0.00 0.00 60 1013.7
20260508150034 11 207 1.6 3.2 0.00 0.00 0.00 62 1013.8
20260508144507 11 261 1.6 4.8 0.00 0.00 0.00 64 1013.9
20260508143007 11 258 1.6 3.2 0.00 0.00 0.00 63 1014.0
20260508141514 11 261 1.6 1.6 0.00 0.00 0.00 64 1014.1
20260508140022 11 258 0.0 3.2 0.00 0.00 0.00 65 1013.9
20260508134525 11 258 1.6 3.2 0.00 0.00 0.00 63 1014.1
20260508133024 10 265 1.6 3.2 0.00 0.00 0.00 65 1013.9
20260508131518 10 254 1.6 3.2 0.00 0.00 0.00 66 1013.9
20260508130021 10 277 1.6 3.2 0.00 0.00 0.00 65 1013.8
20260508124522 10 252 1.6 4.8 0.00 0.00 0.00 66 1013.8
20260508123028 9 246 0.0 3.2 0.00 0.00 0.00 68 1013.7
20260508121514 9 242 1.6 3.2 0.00 0.00 0.00 67 1013.7
20260508120017 8 229 1.6 3.2 0.00 0.00 0.00 68 1013.7
20260508114523 8 247 1.6 1.6 0.00 0.00 0.00 70 1013.6
20260508113024 7 294 0.0 3.2 0.00 0.00 0.00 73 1013.5
20260508111508 7 346 0.0 3.2 0.00 0.00 0.00 74 1013.5
20260508110014 6 346 0.0 0.0 0.00 0.00 0.00 75 1013.3
20260508104533 6 346 0.0 0.0 0.00 0.00 0.00 76 1013.2
20260508103004 6 346 0.0 0.0 0.00 0.00 0.00 78 1013.1
20260508101506 5 346 0.0 1.6 0.00 0.00 0.00 80 1012.9
20260508100014 5 346 0.0 0.0 0.00 0.00 0.00 78 1012.8
20260508094502 6 346 0.0 0.0 0.00 0.00 0.00 78 1012.9
20260508093004 6 346 0.0 0.0 0.00 0.00 0.00 76 1012.9
20260508091507 6 346 0.0 0.0 0.00 0.00 0.00 77 1013.0
20260508090015 6 346 0.0 0.0 0.00 0.00 0.00 78 1013.0
20260508084516 6 346 0.0 0.0 0.00 0.00 0.00 79 1013.0
20260508083004 6 346 0.0 0.0 0.00 0.00 0.00 78 1013.0
20260508081504 7 346 0.0 0.0 0.00 0.00 0.00 77 1013.0
20260508080009 7 346 0.0 0.0 0.00 0.00 0.00 76 1013.0
20260508074516 7 346 0.0 0.0 0.00 0.00 0.00 77 1013.1
20260508073018 8 346 0.0 0.0 0.00 0.00 0.00 76 1013.1
20260508071507 8 346 0.0 0.0 0.00 0.00 0.00 77 1013.2
20260508070018 8 346 0.0 0.0 0.00 0.00 0.00 78 1013.5
20260508064510 8 346 0.0 0.0 0.00 0.00 0.00 76 1013.6
20260508063018 8 346 0.0 3.2 0.00 0.00 0.00 74 1013.6
20260508061524 8 325 0.0 1.6 0.00 0.00 0.00 74 1014.0
20260508060007 8 325 0.0 3.2 0.00 0.00 0.00 71 1014.2
20260508054511 8 307 0.0 0.0 0.00 0.00 0.00 72 1014.4
20260508053017 8 307 0.0 0.0 0.00 0.00 0.00 73 1013.8
20260508051520 8 307 0.0 0.0 0.00 0.00 0.00 74 1013.7
20260508050024 8 307 0.0 0.0 0.00 0.00 0.00 72 1013.6
20260508044510 8 307 0.0 0.0 0.00 0.00 0.00 74 1013.6
20260508043014 8 307 0.0 0.0 0.00 0.00 0.00 74 1013.8
20260508041520 8 307 0.0 0.0 0.00 0.00 0.00 75 1013.9
20260508040026 8 307 0.0 0.0 0.00 0.00 0.00 73 1013.8
20260508034512 8 307 0.0 0.0 0.00 0.00 0.00 74 1013.7
20260508033012 8 307 0.0 0.0 0.00 0.00 0.00 72 1013.7
20260508031521 8 307 0.0 0.0 0.00 0.00 0.00 75 1013.8
20260508030033 8 307 0.0 0.0 0.00 0.00 0.00 72 1013.8
20260508024532 8 307 0.0 0.0 0.00 0.00 0.00 73 1013.8
20260508023014 8 307 0.0 0.0 0.00 0.00 0.00 71 1013.7
20260508021513 8 307 0.0 0.0 0.00 0.00 0.00 68 1013.6
20260508020018 8 307 0.0 0.0 0.00 0.00 0.00 67 1013.6
20260508014524 9 307 0.0 0.0 0.00 0.00 0.00 67 1013.7
20260508013010 9 307 0.0 0.0 0.00 0.00 0.00 66 1013.7
20260508011512 10 307 0.0 0.0 0.00 0.00 0.00 63 1013.6
20260508010024 10 307 0.0 0.0 0.00 0.00 0.00 62 1013.5
20260508004524 11 307 0.0 0.0 0.00 0.00 0.00 61 1013.5
20260508003005 11 307 0.0 0.0 0.00 0.00 0.00 53 1013.2
20260508001510 11 307 0.0 0.0 0.00 0.00 0.00 50 1013.1
20260508000023 12 307 0.0 0.0 0.00 0.00 0.00 51 1013.1
20260507234524 12 307 0.0 1.6 0.00 0.00 0.00 51 1013.1
20260507233026 13 304 0.0 3.2 0.00 0.00 0.00 49 1013.0
20260507231516 13 303 0.0 3.2 0.00 0.00 0.00 44 1013.0
20260507230014 13 303 1.6 3.2 0.00 0.00 0.00 44 1013.0
20260507224520 13 313 0.0 3.2 0.00 0.00 0.00 44 1013.2
20260507223025 13 113 0.0 4.8 0.00 0.00 0.00 44 1013.2
20260507221508 13 298 0.0 6.4 0.00 0.00 0.00 44 1013.2
20260507220013 13 289 1.6 4.8 0.00 0.00 0.00 46 1013.3
20260507214523 13 309 0.0 6.4 0.00 0.00 0.00 45 1013.3
20260507213030 14 244 1.6 11.3 0.00 0.00 0.00 43 1013.2
20260507211527 13 294 1.6 4.8 0.00 0.00 0.00 45 1013.1
20260507210012 15 95 1.6 11.3 0.00 0.00 0.00 42 1013.1
20260507204518 15 103 1.6 8.0 0.00 0.00 0.00 42 1013.0
20260507203023 14 290 3.2 9.7 0.00 0.00 0.00 42 1013.0
20260507201531 15 314 3.2 8.0 0.00 0.00 0.00 43 1012.9
20260507200029 15 301 3.2 6.4 0.00 0.00 0.00 45 1013.0
20260507194513 15 316 1.6 6.4 0.00 0.00 0.00 48 1013.0
20260507193028 14 312 3.2 8.0 0.00 0.00 0.00 42 1013.3
20260507191526 14 298 1.6 6.4 0.00 0.00 0.00 45 1013.2
20260507190029 14 295 3.2 6.4 0.00 0.00 0.00 48 1013.3
20260507184515 13 301 1.6 6.4 0.00 0.00 0.00 50 1013.3
20260507183032 13 301 1.6 6.4 0.00 0.00 0.00 51 1013.4
20260507181526 15 322 3.2 6.4 0.00 0.00 0.00 50 1013.3
20260507180025 14 240 1.6 6.4 0.00 0.00 0.00 51 1013.5
20260507174533 13 306 1.6 4.8 0.00 0.00 0.00 52 1013.6
20260507173016 13 315 1.6 8.0 0.00 0.00 0.00 48 1013.7
20260507171529 13 300 1.6 8.0 0.00 0.00 0.00 51 1013.9
20260507170032 13 269 1.6 6.4 0.00 0.00 0.00 54 1014.1
20260507164527 12 268 3.2 6.4 0.00 0.00 0.00 53 1014.3
20260507163036 12 306 3.2 11.3 0.00 0.00 0.00 50 1014.3
20260507161520 12 314 1.6 8.0 0.00 0.00 0.00 52 1014.2
20260507160034 12 300 1.6 9.7 0.00 0.00 0.00 53 1014.1